| time (UTC) | temp F | wind direction | speed MPH | gust MPH | rain 1hr in | rain 24hr in | rain mn in | humidity % | barometer mb |
| 20260504045137 | 52 | 314 | 1.0 | 2.0 | 0.00 | 0.01 | 0.00 | 63 | 1022.9 |
| 20260504044237 | 51 | 314 | 0.0 | 2.0 | 0.00 | 0.01 | 0.00 | 64 | 1022.7 |
| 20260504043337 | 51 | 314 | 0.0 | 2.0 | 0.00 | 0.01 | 0.00 | 64 | 1022.7 |
| 20260504041537 | 51 | 314 | 0.0 | 2.0 | 0.00 | 0.01 | 0.00 | 63 | 1022.7 |
| 20260504040637 | 51 | 314 | 0.0 | 4.0 | 0.00 | 0.01 | 0.00 | 61 | 1022.6 |
| 20260504033937 | 51 | 314 | 1.0 | 2.0 | 0.00 | 0.01 | 0.00 | 63 | 1022.4 |
| 20260504033037 | 50 | 314 | 0.0 | 2.0 | 0.00 | 0.01 | 0.00 | 64 | 1022.4 |
| 20260504032137 | 50 | 316 | 0.0 | 2.0 | 0.00 | 0.01 | 0.00 | 63 | 1022.3 |
| 20260504031237 | 50 | 345 | 2.0 | 4.0 | 0.00 | 0.01 | 0.00 | 64 | 1022.3 |
| 20260504030337 | 49 | 1 | 0.0 | 2.0 | 0.00 | 0.01 | 0.00 | 65 | 1022.3 |
| 20260504025437 | 49 | 1 | 0.0 | 2.0 | 0.00 | 0.01 | 0.00 | 64 | 1022.2 |
| 20260504024537 | 50 | 1 | 0.0 | 2.0 | 0.00 | 0.01 | 0.00 | 63 | 1022.2 |
| 20260504023637 | 50 | 1 | 0.0 | 2.0 | 0.00 | 0.01 | 0.00 | 63 | 1022.2 |
| 20260504022737 | 50 | 1 | 0.0 | 2.0 | 0.00 | 0.01 | 0.00 | 62 | 1022.2 |
| 20260504020937 | 51 | 2 | 1.0 | 2.0 | 0.00 | 0.01 | 0.00 | 61 | 1022.2 |
| 20260504020037 | 51 | 21 | 1.0 | 2.0 | 0.00 | 0.01 | 0.00 | 61 | 1022.3 |
| 20260504015137 | 51 | 29 | 0.0 | 2.0 | 0.00 | 0.01 | 0.00 | 60 | 1022.3 |
| 20260504014237 | 51 | 47 | 1.0 | 2.0 | 0.00 | 0.01 | 0.00 | 60 | 1022.2 |
| 20260504013337 | 51 | 65 | 1.0 | 2.0 | 0.00 | 0.01 | 0.00 | 59 | 1022.1 |
| 20260504011537 | 51 | 63 | 1.0 | 4.0 | 0.00 | 0.01 | 0.00 | 60 | 1022.0 |
| 20260504010637 | 50 | 18 | 0.0 | 2.0 | 0.00 | 0.01 | 0.00 | 60 | 1022.0 |
| 20260504005737 | 50 | 1 | 0.0 | 2.0 | 0.00 | 0.01 | 0.00 | 60 | 1022.0 |
| 20260504004837 | 50 | 1 | 1.0 | 2.0 | 0.00 | 0.01 | 0.00 | 59 | 1022.1 |
| 20260504003937 | 51 | 1 | 0.0 | 2.0 | 0.00 | 0.01 | 0.00 | 59 | 1022.0 |
| 20260504002137 | 51 | 3 | 0.0 | 2.0 | 0.00 | 0.01 | 0.00 | 58 | 1022.0 |
| 20260504001237 | 51 | 21 | 1.0 | 2.0 | 0.00 | 0.01 | 0.00 | 58 | 1021.9 |
| 20260504000337 | 51 | 22 | 0.0 | 2.0 | 0.00 | 0.01 | 0.00 | 57 | 1021.9 |
| 20260503235437 | 52 | 12 | 0.0 | 2.0 | 0.00 | 0.01 | 0.00 | 56 | 1021.9 |
| 20260503234537 | 52 | 318 | 0.0 | 6.0 | 0.00 | 0.01 | 0.00 | 55 | 1022.0 |
| 20260503233637 | 53 | 309 | 3.0 | 11.0 | 0.00 | 0.01 | 0.00 | 55 | 1021.9 |
| 20260503232737 | 53 | 310 | 4.0 | 7.0 | 0.00 | 0.01 | 0.00 | 55 | 1022.0 |
| 20260503231837 | 52 | 294 | 3.0 | 7.0 | 0.00 | 0.01 | 0.00 | 58 | 1022.0 |
| 20260503230937 | 51 | 292 | 0.0 | 2.0 | 0.00 | 0.01 | 0.00 | 58 | 1022.0 |
| 20260503230037 | 51 | 0 | 0.0 | 0.0 | 0.00 | 0.01 | 0.00 | 59 | 1022.0 |
| 20260503225137 | 51 | 292 | 0.0 | 2.0 | 0.00 | 0.01 | 0.00 | 58 | 1022.1 |
| 20260503223337 | 52 | 309 | 1.0 | 4.0 | 0.00 | 0.05 | 0.00 | 56 | 1021.9 |
| 20260503221537 | 53 | 306 | 3.0 | 11.0 | 0.00 | 0.05 | 0.00 | 54 | 1022.0 |
| 20260503220637 | 53 | 302 | 5.0 | 13.0 | 0.00 | 0.05 | 0.00 | 54 | 1022.0 |
| 20260503214837 | 53 | 300 | 8.0 | 16.0 | 0.00 | 0.05 | 0.00 | 54 | 1022.1 |
| 20260503213937 | 53 | 304 | 3.0 | 9.0 | 0.00 | 0.05 | 0.00 | 55 | 1022.1 |
| 20260503212137 | 53 | 303 | 4.0 | 11.0 | 0.00 | 0.05 | 0.00 | 56 | 1022.0 |
| 20260503211237 | 53 | 305 | 2.0 | 11.0 | 0.00 | 0.05 | 0.00 | 56 | 1022.0 |
| 20260503210337 | 53 | 307 | 5.0 | 8.0 | 0.00 | 0.05 | 0.00 | 55 | 1022.0 |
| 20260503204537 | 53 | 305 | 4.0 | 9.0 | 0.00 | 0.05 | 0.05 | 56 | 1022.0 |
| 20260503203637 | 53 | 308 | 6.0 | 11.0 | 0.00 | 0.05 | 0.05 | 56 | 1022.0 |
| 20260503202737 | 53 | 299 | 8.0 | 11.0 | 0.00 | 0.05 | 0.05 | 56 | 1022.0 |
| 20260503201837 | 53 | 300 | 4.0 | 15.0 | 0.00 | 0.05 | 0.05 | 56 | 1022.2 |
| 20260503200937 | 53 | 312 | 7.0 | 14.0 | 0.00 | 0.05 | 0.05 | 56 | 1022.1 |
| 20260503200037 | 53 | 300 | 7.0 | 11.0 | 0.00 | 0.05 | 0.05 | 56 | 1022.1 |
| 20260503195137 | 54 | 306 | 5.0 | 11.0 | 0.00 | 0.05 | 0.05 | 56 | 1022.1 |
| 20260503194237 | 54 | 295 | 4.0 | 9.0 | 0.00 | 0.05 | 0.05 | 55 | 1022.2 |
| 20260503191537 | 54 | 304 | 5.0 | 11.0 | 0.00 | 0.05 | 0.05 | 54 | 1022.1 |
| 20260503190637 | 54 | 297 | 4.0 | 11.0 | 0.00 | 0.05 | 0.05 | 53 | 1022.0 |
| 20260503185737 | 55 | 310 | 7.0 | 14.0 | 0.00 | 0.05 | 0.05 | 52 | 1021.9 |
| 20260503184837 | 55 | 309 | 8.0 | 16.0 | 0.00 | 0.05 | 0.05 | 51 | 1021.8 |
| 20260503183937 | 55 | 311 | 11.0 | 21.0 | 0.00 | 0.05 | 0.05 | 51 | 1021.7 |
| 20260503183037 | 55 | 306 | 4.0 | 16.0 | 0.00 | 0.05 | 0.05 | 51 | 1021.4 |
| 20260503182137 | 55 | 308 | 8.0 | 15.0 | 0.00 | 0.05 | 0.05 | 52 | 1021.2 |
| 20260503181237 | 55 | 299 | 10.0 | 16.0 | 0.00 | 0.05 | 0.05 | 52 | 1021.0 |
| 20260503175437 | 55 | 305 | 8.0 | 18.0 | 0.00 | 0.05 | 0.05 | 53 | 1021.0 |
| 20260503174537 | 55 | 299 | 10.0 | 17.0 | 0.00 | 0.05 | 0.05 | 53 | 1020.8 |
| 20260503172737 | 55 | 313 | 6.0 | 15.0 | 0.00 | 0.05 | 0.05 | 51 | 1020.7 |
| 20260503171837 | 55 | 319 | 11.0 | 18.0 | 0.00 | 0.05 | 0.05 | 51 | 1020.7 |
| 20260503170937 | 56 | 309 | 7.0 | 15.0 | 0.00 | 0.05 | 0.05 | 50 | 1020.6 |
| 20260503150337 | 60 | 309 | 5.0 | 18.0 | 0.00 | 0.05 | 0.05 | 45 | 1019.3 |
| 20260503090337 | 54 | 316 | 12.0 | 24.0 | 0.00 | 0.05 | 0.05 | 55 | 1019.4 |
| 20260503072437 | 54 | 284 | 2.0 | 6.0 | 0.00 | 0.05 | 0.05 | 61 | 1018.6 |
| 20260503071537 | 52 | 303 | 2.0 | 9.0 | 0.00 | 0.05 | 0.05 | 64 | 1018.7 |
| 20260503070637 | 50 | 313 | 2.0 | 17.0 | 0.00 | 0.05 | 0.05 | 67 | 1018.7 |